RSC4BX GCXO-GCHI

Flight info

Callsign RSC4BX
Flight time 0h 32m
Altitude 10000
Route HIE
Aircraft AT76/M-SDFGRY/LB1

Departure

Time 2026-05-01 07:32
Airport Tenerife Norte-Ciudad de La Laguna Airport (GCXO)

Arrival

Time 2026-05-01 08:04
Airport El Hierro Airport (GCHI)
Time Latitude Longitude Altitude Speed Heading
2026-05-01 07:23 28.48551 -16.34644 2065 ft 3 kts 118°
2026-05-01 07:23 28.48501 -16.34513 2063 ft 13 kts 110°
2026-05-01 07:24 28.48467 -16.34410 2062 ft 15 kts 110°
2026-05-01 07:24 28.48429 -16.34296 2060 ft 16 kts 111°
2026-05-01 07:24 28.48388 -16.34172 2057 ft 17 kts 111°
2026-05-01 07:24 28.48343 -16.34038 2053 ft 19 kts 111°
2026-05-01 07:25 28.48296 -16.33894 2047 ft 20 kts 110°
2026-05-01 07:25 28.48253 -16.33764 2044 ft 16 kts 110°
2026-05-01 07:25 28.48210 -16.33636 2040 ft 19 kts 110°
2026-05-01 07:25 28.48162 -16.33492 2031 ft 20 kts 111°
2026-05-01 07:26 28.48113 -16.33343 2029 ft 20 kts 110°
2026-05-01 07:26 28.48063 -16.33192 2027 ft 20 kts 110°
2026-05-01 07:26 28.48013 -16.33041 2014 ft 20 kts 111°
2026-05-01 07:26 28.47964 -16.32893 2014 ft 20 kts 111°
2026-05-01 07:27 28.47924 -16.32773 2010 ft 9 kts 110°
2026-05-01 07:27 28.47904 -16.32715 2010 ft 4 kts 110°
2026-05-01 07:27 28.47902 -16.32708 2011 ft 0 kts 110°
2026-05-01 07:29 28.47896 -16.32689 2009 ft 6 kts 110°
2026-05-01 07:29 28.47874 -16.32623 2009 ft 11 kts 111°
2026-05-01 07:29 28.47817 -16.32550 2007 ft 13 kts 148°
2026-05-01 07:29 28.47743 -16.32561 2007 ft 6 kts 251°
2026-05-01 07:30 28.47750 -16.32601 2008 ft 3 kts 290°
2026-05-01 07:30 28.47750 -16.32602 2008 ft 0 kts 290°
2026-05-01 07:31 28.48309 -16.34260 2282 ft 125 kts 293°
2026-05-01 07:32 28.49101 -16.36241 3246 ft 143 kts 295°
2026-05-01 07:32 28.49499 -16.37269 3776 ft 143 kts 290°
2026-05-01 07:33 28.50130 -16.39428 4386 ft 152 kts 289°
2026-05-01 07:33 28.50492 -16.40594 4624 ft 162 kts 289°
2026-05-01 07:33 28.51272 -16.43127 5125 ft 179 kts 289°
2026-05-01 07:34 28.51704 -16.44513 5384 ft 187 kts 289°
2026-05-01 07:34 28.52108 -16.47357 6012 ft 186 kts 264°
2026-05-01 07:34 28.51993 -16.48824 6354 ft 186 kts 264°
2026-05-01 07:35 28.51867 -16.50289 6700 ft 186 kts 263°
2026-05-01 07:35 28.51738 -16.51752 7029 ft 186 kts 263°
2026-05-01 07:35 28.51607 -16.53217 7341 ft 187 kts 263°
2026-05-01 07:35 28.51475 -16.54689 7660 ft 187 kts 263°
2026-05-01 07:36 28.51342 -16.56161 7972 ft 187 kts 263°
2026-05-01 07:36 28.51209 -16.57632 8285 ft 188 kts 263°
2026-05-01 07:36 28.51075 -16.59109 8591 ft 188 kts 263°
2026-05-01 07:36 28.50939 -16.60601 8747 ft 196 kts 263°
2026-05-01 07:37 28.50644 -16.63852 8952 ft 211 kts 263°
2026-05-01 07:37 28.50492 -16.65511 9167 ft 211 kts 263°
2026-05-01 07:37 28.50340 -16.67170 9379 ft 211 kts 262°
2026-05-01 07:38 28.50188 -16.68834 9571 ft 211 kts 262°
2026-05-01 07:38 28.50036 -16.70500 9791 ft 212 kts 262°
2026-05-01 07:38 28.49729 -16.73849 10087 ft 217 kts 262°
2026-05-01 07:39 28.49570 -16.75580 10126 ft 223 kts 262°
2026-05-01 07:39 28.49406 -16.77353 10140 ft 228 kts 262°
2026-05-01 07:39 28.49073 -16.81004 10156 ft 236 kts 262°
2026-05-01 07:40 28.48902 -16.82870 10151 ft 239 kts 262°
2026-05-01 07:40 28.48728 -16.84753 10153 ft 240 kts 263°
2026-05-01 07:40 28.48564 -16.86626 10152 ft 242 kts 263°
2026-05-01 07:40 28.48394 -16.88559 10158 ft 243 kts 263°
2026-05-01 07:41 28.48227 -16.90474 10153 ft 244 kts 263°
2026-05-01 07:41 28.48059 -16.92367 10152 ft 244 kts 263°
2026-05-01 07:41 28.47718 -16.96220 10156 ft 245 kts 263°
2026-05-01 07:42 28.47548 -16.98149 10157 ft 246 kts 263°
2026-05-01 07:42 28.47375 -17.00081 10154 ft 246 kts 263°
2026-05-01 07:42 28.47203 -17.02014 10151 ft 246 kts 263°
2026-05-01 07:42 28.47000 -17.03937 10150 ft 244 kts 255°
2026-05-01 07:43 28.46172 -17.05577 10160 ft 239 kts 230°
2026-05-01 07:43 28.45079 -17.07007 10148 ft 241 kts 229°
2026-05-01 07:43 28.42861 -17.09875 10152 ft 243 kts 229°
2026-05-01 07:44 28.40634 -17.12767 10152 ft 244 kts 229°
2026-05-01 07:44 28.38400 -17.15668 10147 ft 244 kts 229°
2026-05-01 07:45 28.37279 -17.17121 10147 ft 245 kts 229°
2026-05-01 07:45 28.36157 -17.18574 10148 ft 245 kts 229°
2026-05-01 07:45 28.35035 -17.20026 10146 ft 245 kts 229°
2026-05-01 07:45 28.33910 -17.21481 10147 ft 245 kts 229°
2026-05-01 07:46 28.32787 -17.22937 10147 ft 245 kts 229°
2026-05-01 07:46 28.31663 -17.24390 10144 ft 245 kts 229°
2026-05-01 07:46 28.29413 -17.27299 10142 ft 245 kts 229°
2026-05-01 07:47 28.28668 -17.28263 10145 ft 245 kts 229°
2026-05-01 07:47 28.27542 -17.29717 10143 ft 245 kts 229°
2026-05-01 07:47 28.26418 -17.31171 10140 ft 245 kts 229°
2026-05-01 07:47 28.25290 -17.32625 10142 ft 245 kts 229°
2026-05-01 07:48 28.23040 -17.35529 10138 ft 245 kts 229°
2026-05-01 07:48 28.21911 -17.36985 10140 ft 245 kts 229°
2026-05-01 07:48 28.20783 -17.38440 10139 ft 245 kts 229°
2026-05-01 07:49 28.19656 -17.39892 10139 ft 245 kts 229°
2026-05-01 07:49 28.17400 -17.42799 10139 ft 246 kts 229°
2026-05-01 07:49 28.16273 -17.44251 10142 ft 246 kts 229°
2026-05-01 07:50 28.15144 -17.45705 10143 ft 246 kts 229°
2026-05-01 07:50 28.12885 -17.48611 10144 ft 246 kts 229°
2026-05-01 07:50 28.11756 -17.50062 10145 ft 246 kts 229°
2026-05-01 07:51 28.10626 -17.51515 10147 ft 246 kts 229°
2026-05-01 07:51 28.09496 -17.52966 10146 ft 246 kts 229°
2026-05-01 07:51 28.08367 -17.54417 10149 ft 246 kts 229°
2026-05-01 07:52 28.06103 -17.57322 10147 ft 246 kts 229°
2026-05-01 07:52 28.04965 -17.58783 10038 ft 251 kts 229°
2026-05-01 07:52 28.03784 -17.60282 9785 ft 258 kts 226°
2026-05-01 07:53 28.00667 -17.62288 9146 ft 258 kts 208°
2026-05-01 07:53 27.99069 -17.63211 8834 ft 257 kts 208°
2026-05-01 07:53 27.97473 -17.64121 8525 ft 256 kts 207°
2026-05-01 07:53 27.95882 -17.65021 8220 ft 256 kts 207°
2026-05-01 07:54 27.92709 -17.66815 7619 ft 254 kts 207°
2026-05-01 07:55 27.87977 -17.69484 6742 ft 252 kts 206°
2026-05-01 07:55 27.84838 -17.71255 6119 ft 252 kts 206°
2026-05-01 07:56 27.80591 -17.73644 5243 ft 198 kts 207°
2026-05-01 07:56 27.78231 -17.74794 4764 ft 173 kts 182°
2026-05-01 07:57 27.77042 -17.74692 4549 ft 172 kts 176°
2026-05-01 07:57 27.74663 -17.74479 4140 ft 171 kts 176°
2026-05-01 07:58 27.72283 -17.74251 3764 ft 169 kts 176°
2026-05-01 07:58 27.69930 -17.74026 3458 ft 170 kts 175°
2026-05-01 07:59 27.67580 -17.73810 3227 ft 168 kts 175°
2026-05-01 07:59 27.65320 -17.73761 3093 ft 157 kts 203°
2026-05-01 08:00 27.66224 -17.77766 2916 ft 162 kts 307°
2026-05-01 08:01 27.68351 -17.80854 2802 ft 169 kts 308°
2026-05-01 08:01 27.69193 -17.81738 2789 ft 165 kts 333°
2026-05-01 08:01 27.70218 -17.82302 2783 ft 164 kts 333°
2026-05-01 08:02 27.72273 -17.83450 2779 ft 165 kts 334°
2026-05-01 08:02 27.73327 -17.84032 2778 ft 175 kts 334°
2026-05-01 08:03 27.75701 -17.85368 2042 ft 200 kts 333°
2026-05-01 08:03 27.76944 -17.86061 1578 ft 191 kts 334°
2026-05-01 08:03 27.79079 -17.87305 812 ft 162 kts 333°
2026-05-01 08:04 27.80888 -17.88356 165 ft 133 kts 333°
2026-05-01 08:04 27.81892 -17.88942 75 ft 23 kts 333°
2026-05-01 08:05 27.81969 -17.88994 66 ft 4 kts 69°
2026-05-01 08:05 27.81964 -17.88985 63 ft 2 kts 130°
2026-05-01 08:05 27.81954 -17.88979 65 ft 1 kts 153°
2026-05-01 08:06 27.81893 -17.88943 74 ft 8 kts 153°
2026-05-01 08:06 27.81786 -17.88880 80 ft 11 kts 153°
2026-05-01 08:07 27.81665 -17.88809 87 ft 9 kts 153°
2026-05-01 08:07 27.81522 -17.88726 92 ft 15 kts 153°
2026-05-01 08:08 27.81440 -17.88678 93 ft 12 kts 152°
2026-05-01 08:08 27.81405 -17.88614 97 ft 5 kts 63°
2026-05-01 08:09 27.81448 -17.88593 95 ft 0 kts 334°
2026-05-01 08:09 27.81449 -17.88594 95 ft 0 kts 333°